Mosby, MO

8:47 AM CST on December 11, 2019 (GMT -0600)
Clay County Regional

Weather History for KGPH - October, 2019

Change the Weather History Date:

Thursday, October 3, 2019

  Actual Average (KMKC) Record (KMKC)
Temperature  
Mean Temperature 55 °F -  
Max Temperature 59 °F 70 °F 93 °F (2006)
Min Temperature 51 °F 50 °F 43 °F (1999)
Degree Days  
Heating Degree Days 10    
Growing Degree Days 5 (Base 50)    
Moisture  
Dew Point 4 °F    
Average Humidity 17    
Maximum Humidity 51    
Minimum Humidity 6    
Precipitation  
Precipitation 0.00 in - - ()
Sea Level Pressure  
Sea Level Pressure 30.22 in    
Wind  
Wind Speed 7 mph ()    
Max Wind Speed 14 mph    
Max Gust Speed 22 mph    
Visibility 9.9 miles    
Events      
Averages and records for this station are not official NWS values.
T = Trace of Precipitation, MM = Missing Value Source: Averaged Metar Reports

Daily Weather History Graph

Daily Weather History Graph

Search for Another Location

Airport or City:

Astronomy

Oct. 03, 2019 Rise Set
Actual Time 7:15 AM CDT 6:56 PM CDT
Civil Twilight 6:48 AM CDT 7:23 PM CDT
Nautical Twilight 6:17 AM CDT 7:54 PM CDT
Astronomical Twilight 5:45 AM CDT 8:25 PM CDT
Moon 12:45 PM CDT (10/3) 10:38 PM CDT (10/3)
Length of Visible Light 12h 35m
Length of Day
11h 41m
Waxing Crescent, 30% of the Moon is Illuminated
Oct 3
Waxing Crescent
Oct 5
First Quarter
Oct 13
Full
Oct 21
Last Quarter
Oct 27
New

Hourly Weather History & Observations

Time (CDT) Temp. Dew Point Humidity Pressure Visibility Wind Dir Wind Speed Gust Speed Precip Events Conditions
12:15 AM 59.0 °F 3.2 °F 11% 30.05 in 10.0 mi NW 11.5 mph 18.4 mph N/A   Overcast
12:35 AM 59.0 °F 5.0 °F 12% 30.05 in 10.0 mi NW 9.2 mph 16.1 mph N/A   Overcast
12:55 AM 59.0 °F 3.2 °F 11% 30.05 in 10.0 mi NW 11.5 mph 16.1 mph N/A   Overcast
1:15 AM 57.2 °F 1.4 °F 10% 30.07 in 10.0 mi NNW 12.7 mph 18.4 mph N/A   Overcast
1:55 AM 55.4 °F -2.2 °F 9% 30.07 in 10.0 mi NW 10.4 mph 17.3 mph N/A   Overcast
2:15 AM 57.2 °F 35.6 °F 44% 30.09 in 10.0 mi NW 13.8 mph 18.4 mph N/A   Overcast
2:35 AM 55.4 °F 37.4 °F 51% 30.10 in 10.0 mi NNW 11.5 mph 19.6 mph N/A   Overcast
2:55 AM 55.4 °F 37.4 °F 51% 30.10 in 10.0 mi North 11.5 mph 16.1 mph N/A   Overcast
3:15 AM 55.4 °F 37.4 °F 51% 30.11 in 10.0 mi NNW 9.2 mph 18.4 mph N/A   Overcast
3:35 AM 55.4 °F 37.4 °F 51% 30.11 in 10.0 mi NW 10.4 mph - N/A   Overcast
3:55 AM 55.4 °F 37.4 °F 51% 30.12 in 10.0 mi NNW 13.8 mph 18.4 mph N/A   Overcast
4:15 AM 55.4 °F 37.4 °F 51% 30.13 in 10.0 mi NNW 11.5 mph 18.4 mph N/A   Overcast
4:35 AM 53.6 °F 33.8 °F 47% 30.13 in 10.0 mi NNW 13.8 mph - N/A   Overcast
4:55 AM 53.6 °F 32.0 °F 44% 30.13 in 10.0 mi NNW 10.4 mph 19.6 mph N/A   Overcast
5:15 AM 53.6 °F 32.0 °F 44% 30.15 in 10.0 mi NNW 10.4 mph 16.1 mph N/A   Overcast
5:35 AM 53.6 °F 32.0 °F 44% 30.15 in 10.0 mi North 10.4 mph 16.1 mph N/A   Overcast
5:55 AM 53.6 °F 32.0 °F 44% 30.15 in 10.0 mi NNW 13.8 mph 21.9 mph N/A   Overcast
6:15 AM 51.8 °F 30.2 °F 44% 30.16 in 10.0 mi North 11.5 mph 16.1 mph N/A   Overcast
6:35 AM 51.8 °F 26.6 °F 38% 30.17 in 10.0 mi Calm Calm - N/A   Mostly Cloudy
6:55 AM 51.8 °F 3.2 °F 14% 30.19 in 10.0 mi Calm Calm - N/A   Overcast
7:15 AM 51.8 °F -7.6 °F 8% 30.20 in 10.0 mi NW 6.9 mph - N/A   Unknown
7:35 AM 51.8 °F -7.6 °F 8% 30.20 in 10.0 mi NNW 4.6 mph - N/A   Unknown
7:55 AM 51.8 °F -11.2 °F 7% 30.20 in 10.0 mi North 6.9 mph - N/A   Overcast
8:15 AM 51.8 °F -13.0 °F 7% 30.23 in 10.0 mi NW 4.6 mph - N/A   Overcast
8:35 AM 51.8 °F -9.4 °F 8% 30.24 in 10.0 mi Calm Calm - N/A   Overcast
8:55 AM 51.8 °F -13.0 °F 7% 30.25 in 10.0 mi Calm Calm - N/A   Overcast
9:15 AM 51.8 °F 1.4 °F 13% 30.24 in 10.0 mi Calm Calm - N/A   Overcast
9:35 AM 51.8 °F -0.4 °F 12% 30.23 in 10.0 mi North 5.8 mph - N/A   Overcast
9:55 AM 51.8 °F -4.0 °F 10% 30.25 in 10.0 mi NNW 5.8 mph - N/A   Overcast
10:15 AM 51.8 °F -4.0 °F 10% 30.25 in 10.0 mi North 9.2 mph - N/A   Overcast
10:35 AM 51.8 °F -4.0 °F 10% 30.27 in 10.0 mi NNW 9.2 mph - N/A   Overcast
10:55 AM 53.6 °F -4.0 °F 9% 30.26 in 10.0 mi North 4.6 mph - N/A   Overcast
11:15 AM 53.6 °F -5.8 °F 9% 30.27 in 10.0 mi NNW 9.2 mph - N/A   Overcast
11:35 AM 53.6 °F -5.8 °F 9% 30.28 in 10.0 mi North 4.6 mph - N/A   Mostly Cloudy
11:55 AM 53.6 °F -5.8 °F 9% 30.28 in 10.0 mi Calm Calm - N/A   Mostly Cloudy
12:15 PM 53.6 °F -5.8 °F 9% 30.27 in 10.0 mi Calm Calm - N/A   Scattered Clouds
12:55 PM 55.4 °F -5.8 °F 8% 30.27 in 10.0 mi North 9.2 mph - N/A   Mostly Cloudy
1:15 PM 55.4 °F -5.8 °F 8% 30.27 in 10.0 mi North 4.6 mph - N/A   Scattered Clouds
1:35 PM 55.4 °F -7.6 °F 7% 30.27 in 10.0 mi North 9.2 mph - N/A   Scattered Clouds
2:15 PM 55.4 °F -7.6 °F 7% 30.28 in 10.0 mi NNW 8.1 mph - N/A   Scattered Clouds
2:35 PM 55.4 °F -7.6 °F 7% 30.28 in 10.0 mi Calm Calm - N/A   Scattered Clouds
2:55 PM 55.4 °F -7.6 °F 7% 30.27 in 10.0 mi Calm Calm - N/A   Clear
3:15 PM 55.4 °F -7.6 °F 7% 30.26 in 10.0 mi North 8.1 mph - N/A   Clear
3:35 PM 55.4 °F -7.6 °F 7% 30.28 in 10.0 mi NNW 5.8 mph - N/A   Clear
3:55 PM 55.4 °F -7.6 °F 7% 30.28 in 10.0 mi Calm Calm - N/A   Scattered Clouds
4:15 PM 55.4 °F -7.6 °F 7% 30.27 in 10.0 mi Calm Calm - N/A   Scattered Clouds
4:35 PM 55.4 °F -7.6 °F 7% 30.28 in 10.0 mi Calm Calm - N/A   Clear
4:55 PM 59.0 °F -9.4 °F 6% 30.27 in 10.0 mi North 8.1 mph - N/A   Clear
5:15 PM 57.2 °F -7.6 °F 7% 30.26 in 10.0 mi Calm Calm - N/A   Clear
5:35 PM 57.2 °F -7.6 °F 7% 30.26 in 10.0 mi Calm Calm - N/A   Clear
5:55 PM 59.0 °F -5.8 °F 7% 30.27 in 10.0 mi Calm Calm - N/A   Clear
6:15 PM 59.0 °F -7.6 °F 6% 30.27 in 10.0 mi Calm Calm - N/A   Clear
6:55 PM 57.2 °F -5.8 °F 8% 30.27 in 10.0 mi Calm Calm - N/A   Clear
7:35 PM 55.4 °F -5.8 °F 8% 30.28 in 10.0 mi Calm Calm - N/A   Clear
7:55 PM 55.4 °F -5.8 °F 8% 30.27 in 4.0 mi Calm Calm - N/A   Haze
8:15 PM 53.6 °F -4.0 °F 9% 30.28 in 10.0 mi Calm Calm - N/A   Clear
8:35 PM 53.6 °F 1.4 °F 12% 30.29 in 10.0 mi Calm Calm - N/A   Clear
8:55 PM 53.6 °F 3.2 °F 13% 30.29 in 10.0 mi Calm Calm - N/A   Clear
9:15 PM 53.6 °F 3.2 °F 13% 30.30 in 10.0 mi Calm Calm - N/A   Clear
9:35 PM 53.6 °F 3.2 °F 13% 30.30 in 10.0 mi Calm Calm - N/A   Clear
9:55 PM 53.6 °F 1.4 °F 12% 30.31 in 10.0 mi Calm Calm - N/A   Clear
10:15 PM 53.6 °F -4.0 °F 9% 30.32 in 10.0 mi Calm Calm - N/A   Clear
10:35 PM 51.8 °F -4.0 °F 10% 30.32 in 10.0 mi Calm Calm - N/A   Clear
10:55 PM 51.8 °F -5.8 °F 9% 30.32 in 10.0 mi Calm Calm - N/A   Clear
11:35 PM 51.8 °F -0.4 °F 12% 30.34 in 10.0 mi Calm Calm - N/A   Clear
11:55 PM 51.8 °F 3.2 °F 14% 30.33 in 10.0 mi Calm Calm - N/A   Clear